Indianapolis Mount Comfort, IN

9:29 AM EDT on September 15, 2019 (GMT -0400)
Mount Comfort

Weather History for KMQJ - August, 2019

Change the Weather History Date:

Saturday, August 17, 2019

  Actual Average (WUND) Record (WUND)
Temperature  
Mean Temperature 73 °F -  
Max Temperature 80 °F - - (-1)
Min Temperature 66 °F - - (-1)
Cooling Degree Days 8    
Growing Degree Days 23 (Base 50)    
Moisture  
Dew Point 71 °F    
Average Humidity 96    
Maximum Humidity 100    
Minimum Humidity 74    
Precipitation  
Precipitation 0.00 in - - ()
Sea Level Pressure  
Sea Level Pressure 29.97 in    
Wind  
Wind Speed 3 mph (South)    
Max Wind Speed 9 mph    
Max Gust Speed 29 mph    
Visibility 10 miles    
Events      
Averages and records for this station are not official NWS values.
T = Trace of Precipitation, MM = Missing Value Source: NWS Daily Summary

Daily Weather History Graph

Daily Weather History Graph

Search for Another Location

Airport or City:

Astronomy

Aug. 17, 2019 Rise Set
Actual Time 6:57 AM EDT 8:37 PM EDT
Civil Twilight 6:28 AM EDT 9:06 PM EDT
Nautical Twilight 5:53 AM EDT 9:40 PM EDT
Astronomical Twilight 5:16 AM EDT 10:17 PM EDT
Moon 10:05 PM EDT (8/17) 8:45 AM EDT (8/17)
Length of Visible Light 14h 37m
Length of Day
13h 40m
Waning Gibbous, 96% of the Moon is Illuminated
Aug 17
Waning Gibbous
Aug 23
Last Quarter
Aug 30
New
Sep 5
First Quarter
Sep 14
Full

Hourly Weather History & Observations

Time (EDT) Temp. Heat Index Dew Point Humidity Pressure Visibility Wind Dir Wind Speed Gust Speed Precip Events Conditions
12:15 AM 71.6 °F - 71.6 °F 100% 29.95 in 10.0 mi South 4.6 mph - N/A   Clear
12:16 AM 71.6 °F - 71.6 °F 100% 29.95 in 10.0 mi South 4.6 mph - N/A   Clear
12:35 AM 71.6 °F - 71.6 °F 100% 29.95 in 10.0 mi South 3.5 mph - N/A   Clear
12:36 AM 71.6 °F - 71.6 °F 100% 29.96 in 10.0 mi South 3.5 mph - N/A   Clear
12:55 AM 69.8 °F - 69.8 °F 100% 29.96 in 10.0 mi South 3.5 mph - N/A   Clear
12:56 AM 69.8 °F - 69.8 °F 100% 29.96 in 10.0 mi Calm Calm - N/A   Clear
1:15 AM 69.8 °F - 69.8 °F 100% 29.96 in 10.0 mi South 4.6 mph - N/A   Clear
1:35 AM 69.8 °F - 69.8 °F 100% 29.96 in 10.0 mi South 4.6 mph - N/A   Clear
1:55 AM 69.8 °F - 69.8 °F 100% 29.96 in 10.0 mi SSW 3.5 mph - N/A   Clear
1:56 AM 69.8 °F - 69.8 °F 100% 29.96 in 10.0 mi South 3.5 mph - N/A   Clear
2:15 AM 69.8 °F - 69.8 °F 100% 29.96 in 10.0 mi South 3.5 mph - N/A   Clear
2:35 AM 68.0 °F - 68.0 °F 100% 29.97 in 10.0 mi Calm Calm - N/A   Clear
2:55 AM 68.0 °F - 68.0 °F 100% 29.97 in 10.0 mi SSW 3.5 mph - N/A   Clear
3:15 AM 68.0 °F - 68.0 °F 100% 29.98 in 10.0 mi Calm Calm - N/A   Clear
3:35 AM 68.0 °F - 68.0 °F 100% 29.98 in 10.0 mi Calm Calm - N/A   Clear
3:55 AM 68.0 °F - 68.0 °F 100% 29.97 in 10.0 mi Calm Calm - N/A   Clear
3:56 AM 68.0 °F - 68.0 °F 100% 29.97 in 10.0 mi Calm Calm - N/A   Clear
4:15 AM 66.2 °F - 66.2 °F 100% 29.96 in 10.0 mi Calm Calm - N/A   Clear
4:16 AM 66.2 °F - 66.2 °F 100% 29.96 in 10.0 mi Calm Calm - N/A   Clear
4:35 AM 68.0 °F - 68.0 °F 100% 29.94 in 10.0 mi Calm Calm - N/A   Clear
4:36 AM 68.0 °F - 68.0 °F 100% 29.94 in 10.0 mi Calm Calm - N/A   Clear
4:55 AM 66.2 °F - 66.2 °F 100% 29.94 in 10.0 mi Calm Calm - N/A   Clear
4:56 AM 66.2 °F - 66.2 °F 100% 29.94 in 10.0 mi Calm Calm - N/A   Clear
5:15 AM 66.2 °F - 66.2 °F 100% 29.93 in 10.0 mi Calm Calm - N/A   Clear
5:16 AM 66.2 °F - 66.2 °F 100% 29.93 in 10.0 mi Calm Calm - N/A   Clear
5:35 AM 66.2 °F - 66.2 °F 100% 29.94 in 10.0 mi Calm Calm - N/A   Scattered Clouds
5:36 AM 66.2 °F - 66.2 °F 100% 29.94 in 10.0 mi Calm Calm - N/A   Scattered Clouds
5:55 AM 66.2 °F - 66.2 °F 100% 29.94 in 7.0 mi Calm Calm - N/A   Clear
5:56 AM 66.2 °F - 66.2 °F 100% 29.94 in 7.0 mi Calm Calm - N/A   Clear
6:15 AM 66.2 °F - 66.2 °F 100% 29.96 in 7.0 mi Calm Calm - N/A   Scattered Clouds
6:16 AM 66.2 °F - 66.2 °F 100% 29.96 in 7.0 mi Calm Calm - N/A   Scattered Clouds
6:35 AM 66.2 °F - 66.2 °F 100% 29.97 in 7.0 mi Calm Calm - N/A   Scattered Clouds
7:15 AM 68.0 °F - 68.0 °F 100% 29.98 in 7.0 mi Calm Calm - N/A   Mostly Cloudy
7:35 AM 68.0 °F - 68.0 °F 100% 29.99 in 7.0 mi Calm Calm - N/A   Mostly Cloudy
7:55 AM 68.0 °F - 68.0 °F 100% 29.99 in 7.0 mi Calm Calm - N/A   Scattered Clouds
8:15 AM 68.0 °F - 68.0 °F 100% 29.99 in 7.0 mi Calm Calm - N/A   Scattered Clouds
8:16 AM 68.0 °F - 68.0 °F 100% 29.99 in 7.0 mi Calm Calm - N/A   Scattered Clouds
8:35 AM 69.8 °F - 69.8 °F 100% 29.99 in 10.0 mi Calm Calm - N/A   Clear
8:55 AM 69.8 °F - 69.8 °F 100% 29.99 in 10.0 mi Calm Calm - N/A   Clear
8:56 AM 69.8 °F - 69.8 °F 100% 29.99 in 10.0 mi Calm Calm - N/A   Clear
9:15 AM 69.8 °F - 69.8 °F 100% 30.00 in 10.0 mi Calm Calm - N/A   Clear
9:35 AM 69.8 °F - 69.8 °F 100% 30.01 in 10.0 mi Calm Calm - N/A   Clear
9:55 AM 71.6 °F - 71.6 °F 100% 30.00 in 10.0 mi Calm Calm - N/A   Clear
9:56 AM 71.6 °F - 71.6 °F 100% 30.00 in 10.0 mi South 3.5 mph - N/A   Clear
10:15 AM 73.4 °F - 73.4 °F 100% 29.99 in 10.0 mi South 3.5 mph - N/A   Clear
10:35 AM 75.2 °F - 73.4 °F 94% 29.99 in 10.0 mi South 5.8 mph - N/A   Clear
10:55 AM 73.4 °F - 73.4 °F 100% 30.01 in 10.0 mi SSW 3.5 mph - N/A   Clear
10:56 AM 73.4 °F - 73.4 °F 100% 30.01 in 10.0 mi South 3.5 mph - N/A   Clear
11:15 AM 73.4 °F - 73.4 °F 100% 30.02 in 10.0 mi SSW 5.8 mph - N/A   Clear
11:35 AM 75.2 °F - 75.2 °F 100% 30.02 in 10.0 mi SSW 3.5 mph - N/A   Clear
11:36 AM 75.2 °F - 75.2 °F 100% 30.02 in 10.0 mi South 3.5 mph - N/A   Clear
11:55 AM 75.2 °F - 73.4 °F 94% 30.03 in 10.0 mi SW 8.1 mph - N/A   Clear
11:56 AM 75.2 °F - 73.4 °F 94% 30.03 in 10.0 mi SSW 8.1 mph - N/A   Clear
12:15 PM 75.2 °F - 73.4 °F 94% 30.03 in 10.0 mi South 4.6 mph - N/A   Scattered Clouds
12:35 PM 75.2 °F - 73.4 °F 94% 30.05 in 10.0 mi WSW 5.8 mph - N/A   Scattered Clouds
12:36 PM 75.2 °F - 73.4 °F 94% 30.05 in 10.0 mi WSW 5.8 mph - N/A   Scattered Clouds
12:55 PM 68.0 °F - 68.0 °F 100% 30.06 in 1.5 mi WSW 9.2 mph 28.8 mph N/A   Overcast
1:15 PM 68.0 °F - 68.0 °F 100% 30.04 in 7.0 mi SW 4.6 mph - N/A   Overcast
1:36 PM 68.0 °F - 68.0 °F 100% 30.03 in 5.0 mi Calm Calm - N/A   Overcast
1:55 PM 66.2 °F - 66.2 °F 100% 30.00 in 7.0 mi Calm Calm - N/A   Overcast
2:15 PM 68.0 °F - 68.0 °F 100% 29.97 in 10.0 mi ESE 4.6 mph - N/A   Mostly Cloudy
2:16 PM 68.0 °F - 68.0 °F 100% 29.97 in 10.0 mi SE 4.6 mph - N/A   Mostly Cloudy
2:35 PM 68.0 °F - 68.0 °F 100% 29.97 in 10.0 mi SE 6.9 mph - N/A   Scattered Clouds
2:55 PM 71.6 °F - 71.6 °F 100% 29.98 in 10.0 mi SSE 5.8 mph - N/A   Clear
3:15 PM 73.4 °F - 71.6 °F 94% 29.96 in 10.0 mi SE 5.8 mph - N/A   Clear
3:16 PM 73.4 °F - 71.6 °F 94% 29.96 in 10.0 mi SE 5.8 mph - N/A   Clear
3:35 PM 73.4 °F - 71.6 °F 94% 29.96 in 10.0 mi South 6.9 mph - N/A   Clear
3:55 PM 73.4 °F - 71.6 °F 94% 29.95 in 10.0 mi SSE 4.6 mph - N/A   Clear
3:56 PM 73.4 °F - 71.6 °F 94% 29.95 in 10.0 mi South 4.6 mph - N/A   Clear
4:15 PM 73.4 °F - 71.6 °F 94% 29.95 in 10.0 mi SSE 4.6 mph - N/A   Clear
4:16 PM 73.4 °F - 71.6 °F 94% 29.95 in 10.0 mi SSE 5.8 mph - N/A   Clear
4:35 PM 77.0 °F - 73.4 °F 89% 29.94 in 10.0 mi SSW 4.6 mph - N/A   Clear
4:55 PM 78.8 °F - 73.4 °F 83% 29.94 in 10.0 mi South 6.9 mph - N/A   Clear
4:56 PM 78.8 °F - 73.4 °F 83% 29.94 in 10.0 mi South 5.8 mph - N/A   Clear
5:15 PM 80.6 °F 85.4 °F 73.4 °F 79% 29.94 in 10.0 mi South 5.8 mph - N/A   Clear
5:35 PM 80.6 °F 84.6 °F 71.6 °F 74% 29.94 in 10.0 mi South 6.9 mph - N/A   Clear
5:55 PM 80.6 °F 84.6 °F 71.6 °F 74% 29.94 in 10.0 mi SSW 9.2 mph - N/A   Clear
5:56 PM 80.6 °F 84.6 °F 71.6 °F 74% 29.94 in 10.0 mi SSW 8.1 mph - N/A   Clear
6:15 PM 80.6 °F 85.4 °F 73.4 °F 79% 29.93 in 10.0 mi South 9.2 mph - N/A   Clear
6:35 PM 80.6 °F 85.4 °F 73.4 °F 79% 29.93 in 10.0 mi SSW 6.9 mph - N/A   Clear
6:36 PM 80.6 °F 85.4 °F 73.4 °F 79% 29.93 in 10.0 mi SSW 6.9 mph - N/A   Clear
6:55 PM 80.6 °F 85.4 °F 73.4 °F 79% 29.94 in 10.0 mi SSW 4.6 mph - N/A   Clear
6:56 PM 80.6 °F 85.4 °F 73.4 °F 79% 29.94 in 10.0 mi SSW 4.6 mph - N/A   Clear
7:15 PM 78.8 °F - 73.4 °F 83% 29.94 in 10.0 mi SSW 5.8 mph - N/A   Clear
7:35 PM 78.8 °F - 73.4 °F 83% 29.94 in 10.0 mi Calm Calm - N/A   Clear
7:55 PM 77.0 °F - 73.4 °F 89% 29.94 in 10.0 mi Calm Calm - N/A   Clear
8:15 PM 75.2 °F - 73.4 °F 94% 29.93 in 10.0 mi Calm Calm - N/A   Clear
8:35 PM 75.2 °F - 73.4 °F 94% 29.93 in 10.0 mi Calm Calm - N/A   Clear
8:55 PM 73.4 °F - 71.6 °F 94% 29.93 in 10.0 mi Calm Calm - N/A   Clear
9:15 PM 73.4 °F - 71.6 °F 94% 29.93 in 10.0 mi Calm Calm - N/A   Clear
9:35 PM 71.6 °F - 71.6 °F 100% 29.94 in 10.0 mi Calm Calm - N/A   Clear
9:55 PM 73.4 °F - 71.6 °F 94% 29.94 in 10.0 mi Calm Calm - N/A   Clear
10:15 PM 73.4 °F - 71.6 °F 94% 29.95 in 10.0 mi Calm Calm - N/A   Clear
10:16 PM 73.4 °F - 71.6 °F 94% 29.95 in 10.0 mi Calm Calm - N/A   Clear
10:35 PM 73.4 °F - 73.4 °F 100% 29.96 in 10.0 mi Calm Calm - N/A   Clear
10:36 PM 73.4 °F - 71.6 °F 94% 29.96 in 10.0 mi Calm Calm - N/A   Clear
10:55 PM 73.4 °F - 73.4 °F 100% 29.96 in 10.0 mi Calm Calm - N/A   Clear
11:15 PM 73.4 °F - 71.6 °F 94% 29.96 in 10.0 mi Calm Calm - N/A   Clear
11:16 PM 73.4 °F - 71.6 °F 94% 29.96 in 10.0 mi Calm Calm - N/A   Clear
11:35 PM 73.4 °F - 73.4 °F 100% 29.96 in 10.0 mi Calm Calm - N/A   Clear
11:55 PM 73.4 °F - 73.4 °F 100% 29.96 in 10.0 mi Calm Calm - N/A   Clear